Zurück zum Katalog

DMSP 5D-2 F13 DEB

AktivSSO
NORAD 42325·DEBRIS·🇺🇸 United States

Gestartet Mar 24, 1995 von Vandenberg Space Force Base

Loading…

Nächste Überflüge (nächste 24 Stunden)

TLE

AktuellSource: Space-Track

Epoche: Sep 14, 2026, 14:27 UTC

1 42325U 95015JT  26257.60256014  .00004035  00000-0  11870-2 0  9993
2 42325  98.7173 307.0631 0010082 221.5414 138.5010 14.44244193565676

Verfolge DMSP 5D-2 F13 DEB in Echtzeit mit AllMySat

Download on the App Store